GFSMA_925_rhum_282.txt.gz
RH
78 78 74 74 74 73 79 54 72 73 72 66 66 63 65 67 69 91 96 91 95 93 95 94 92 84 87 86 95 96 74 93 92 94 81 85 81 84 84 84 83 81 80
81 80 77 73 69 73 80 55 74 74 71 67 64 67 66 70 79 81 86 88 93 90 91 84 85 86 85 90 95 97 94 86 84 83 83 85 86 84 84 83 84 82 82
74 82 78 73 73 77 75 68 77 74 69 66 66 62 67 75 74 83 92 94 91 86 84 85 80 82 94 92 92 92 86 84 84 83 85 87 86 86 85 85 83 84 83
71 81 77 74 74 75 70 77 76 69 67 70 67 66 64 81 80 86 93 94 88 81 80 82 78 90 88 83 96 92 86 86 81 85 88 87 88 86 86 86 86 85 85
69 75 79 78 76 76 68 78 73 68 69 79 76 74 75 88 86 87 91 92 85 83 77 80 80 86 77 84 94 91 73 82 87 88 90 88 87 87 87 87 86 87 86
71 67 80 81 77 76 72 81 70 79 83 80 70 85 88 92 94 96 91 93 89 86 77 78 90 72 68 92 93 88 82 83 86 90 89 88 88 87 87 87 88 87 86
75 74 73 82 78 74 72 82 79 88 100 93 80 100 100 99 99 100 100 96 97 87 80 78 88 75 79 93 88 69 82 86 88 90 90 89 89 88 88 88 89 87 87
78 79 76 78 79 76 74 83 78 98 99 100 96 90 92 96 100 100 100 100 97 93 83 81 90 82 85 94 83 72 70 85 88 89 90 89 88 88 88 90 87 87 87
77 77 78 76 78 76 74 79 80 83 90 98 90 78 86 85 89 98 100 98 100 95 90 84 92 86 82 87 88 80 76 72 90 89 88 87 88 86 87 90 87 86 84
78 77 79 75 75 76 77 80 77 84 76 78 84 72 67 71 92 94 97 100 99 96 93 93 97 90 81 87 88 82 78 78 88 91 88 86 88 86 84 88 86 86 84
79 78 78 76 74 74 77 82 84 79 82 73 73 70 67 74 79 88 93 93 100 99 99 98 100 95 87 81 80 88 83 80 88 92 88 86 86 86 82 85 84 86 82
84 84 81 77 74 75 76 77 81 81 78 76 73 71 65 64 71 78 90 92 94 98 100 95 100 94 91 84 82 91 89 83 84 95 92 88 84 85 83 82 85 86 79
93 89 81 77 74 78 79 78 77 80 78 77 73 74 70 65 58 62 72 91 93 92 95 94 99 95 91 86 89 93 90 90 73 79 94 92 90 88 80 79 81 87 75
87 87 84 79 73 74 73 76 79 80 80 78 77 76 74 71 62 55 52 72 95 93 93 89 91 91 88 89 90 91 93 90 85 75 78 89 95 90 79 68 66 69 54
82 81 80 82 78 76 75 74 80 79 84 79 79 78 77 75 73 66 59 46 49 89 96 82 85 82 83 88 91 92 92 92 90 89 80 79 86 98 86 82 74 58 47
88 87 84 82 83 81 79 80 82 87 89 84 84 82 81 80 78 73 65 55 45 43 80 53 57 78 80 86 86 92 91 90 86 88 83 85 85 88 92 88 85 65 48
92 91 88 85 81 80 80 81 86 88 88 87 86 84 83 82 80 79 73 61 52 51 59 47 47 46 78 79 87 88 90 90 85 80 79 76 75 86 92 93 88 68 51
92 80 83 92 88 84 81 81 85 88 90 92 85 85 83 84 84 82 79 72 62 55 55 55 50 48 52 69 73 82 88 86 84 79 76 74 72 76 88 93 84 64 57
97 100 100 99 94 90 84 82 82 87 90 95 92 86 80 84 82 82 80 78 73 64 60 61 55 56 56 62 67 69 76 85 81 77 74 70 70 79 89 88 78 77 77
98 100 100 100 96 90 87 93 85 89 96 97 94 84 85 81 77 77 76 76 74 70 68 66 65 62 63 69 74 72 72 73 75 76 72 73 78 83 82 84 90 86 81
99 99 100 100 99 95 91 88 91 100 98 92 89 90 89 89 81 73 76 75 75 75 74 74 74 73 71 73 72 65 73 73 76 75 73 79 91 87 87 95 92 94 87
97 95 100 99 100 99 99 99 99 97 95 97 95 94 95 90 88 87 81 79 74 73 75 77 80 75 69 65 62 65 72 84 86 77 75 76 85 89 96 99 93 89 75
99 96 100 100 100 100 99 100 100 100 100 99 100 98 98 91 89 86 83 86 86 85 81 77 78 75 74 67 64 70 75 76 78 83 86 92 90 98 100 100 91 72 61
100 100 100 100 100 100 100 100 100 100 100 99 97 93 91 88 85 84 88 91 90 88 89 88 84 83 80 77 76 81 84 94 98 96 98 99 97 98 98 91 75 63 69
100 100 100 100 100 100 100 100 100 100 100 100 97 96 98 97 97 99 89 88 90 87 86 92 93 95 94 98 99 100 100 100 100 99 100 93 81 79 75 70 78 68 66
100 100 100 99 100 100 100 100 100 100 100 100 100 100 100 100 100 86 97 100 100 99 98 100 100 100 99 100 99 100 100 99 98 98 97 94 83 86 87 64 61 62 60

GFSMA_925_rhum_288.txt.gz
RH
70 66 80 95 92 91 74 66 68 67 64 61 60 61 68 77 78 80 89 90 99 94 90 93 90 83 97 100 98 98 97 88 87 85 84 83 84 82 83 82 80 82 77
64 75 88 99 86 77 72 65 66 65 63 62 63 64 67 81 85 95 97 100 95 86 89 91 87 86 98 96 94 96 91 84 84 82 87 85 85 82 84 82 84 84 83
66 72 88 89 87 73 75 66 73 69 66 63 64 66 68 73 86 95 100 97 91 87 91 88 85 91 96 96 93 90 86 86 85 86 87 86 85 87 86 83 84 84 82
72 72 89 94 90 84 76 71 76 76 72 69 71 75 74 73 79 86 94 96 92 84 87 84 85 90 94 94 91 90 87 87 89 89 87 88 86 86 86 86 86 86 84
75 70 71 82 89 85 80 75 76 80 79 74 88 93 82 80 75 87 86 90 88 82 80 81 83 88 91 92 91 90 87 87 91 88 90 88 88 88 86 86 83 86 86
79 73 71 75 83 85 80 79 80 84 80 80 93 84 84 89 92 77 79 86 82 86 79 77 86 95 89 92 94 90 89 89 90 90 90 88 89 88 87 86 85 86 86
82 81 77 78 85 83 80 70 80 88 86 87 90 97 93 100 98 100 99 99 93 90 84 80 81 77 84 87 93 87 89 88 90 90 90 90 89 89 88 88 86 86 86
82 81 81 81 83 81 80 71 86 85 84 86 63 69 73 84 92 87 94 99 99 98 87 82 90 83 85 95 94 82 76 86 89 89 90 90 89 90 90 89 86 87 86
84 83 81 82 84 82 82 78 81 86 85 90 72 57 66 62 55 76 92 100 99 99 93 92 83 91 87 92 90 90 74 75 89 90 90 89 88 89 89 89 88 86 84
83 84 81 80 83 84 82 78 77 78 77 82 84 67 67 55 58 65 77 94 100 99 99 92 82 94 89 86 90 88 80 72 84 92 91 90 88 85 86 91 89 86 83
87 76 75 83 84 85 81 79 78 79 73 75 73 76 70 68 69 56 55 72 96 100 99 98 92 93 91 92 94 92 82 74 76 92 91 89 88 85 82 89 87 90 85
99 91 84 80 88 91 87 85 79 80 76 73 76 75 67 63 61 60 56 58 61 74 94 99 97 94 90 97 90 97 90 83 76 92 93 91 90 89 86 82 84 89 88
100 97 89 86 94 88 86 85 84 81 83 78 77 72 65 60 60 61 56 52 54 58 76 88 96 96 98 97 95 96 99 92 84 78 95 96 95 92 92 86 85 88 83
99 98 92 93 92 86 92 92 89 88 90 90 83 75 70 66 65 65 62 58 62 60 64 65 77 83 98 98 88 92 100 96 94 85 84 93 91 88 90 93 92 91 95
96 97 100 97 92 93 88 91 89 88 82 85 90 86 80 74 70 69 68 69 64 64 56 56 68 77 87 92 98 97 91 96 100 92 89 84 84 90 92 90 86 88 92
92 92 96 95 93 94 94 95 97 93 88 91 88 90 87 82 79 76 75 74 66 66 67 56 56 63 74 66 84 97 99 100 99 96 94 93 89 92 93 94 90 88 86
97 94 93 91 93 95 96 97 93 92 94 93 94 88 90 90 85 82 79 76 72 69 68 65 60 62 71 54 55 59 90 100 99 97 100 100 100 97 98 98 94 94 90
99 94 94 95 93 94 93 91 89 90 91 92 94 93 91 90 92 88 87 81 76 73 69 69 65 66 66 63 64 77 80 88 96 89 94 99 100 100 99 99 97 95 93
98 98 96 97 94 92 90 91 92 91 94 92 90 88 87 90 92 93 94 89 88 78 75 69 66 67 67 70 58 59 66 69 74 82 85 91 95 96 94 89 85 87 93
96 99 98 95 85 89 90 89 92 94 98 99 96 94 93 92 92 93 95 95 91 88 79 78 74 71 73 76 70 74 72 62 72 67 80 90 89 87 84 80 80 89 94
100 100 100 98 83 86 86 87 88 92 94 94 94 96 97 93 92 88 94 96 97 94 92 87 84 78 79 83 73 68 73 72 74 79 73 79 86 90 85 80 84 90 94
99 100 100 100 100 98 93 97 95 95 96 95 99 93 97 93 92 95 96 99 98 98 96 90 84 83 80 78 74 75 77 83 77 68 80 80 82 95 94 87 88 91 95
100 99 99 100 100 99 99 99 99 100 100 98 97 98 100 96 98 100 98 100 100 95 87 84 86 83 77 74 79 81 80 79 72 72 75 90 86 97 88 90 96 100 100
100 100 100 100 100 100 97 98 99 100 100 99 98 99 100 99 96 96 100 100 100 97 93 91 87 79 78 78 78 77 81 83 82 77 74 86 81 95 100 100 100 100 100
100 100 100 100 100 100 100 100 100 100 100 100 100 99 100 100 98 99 100 100 100 98 90 90 88 86 88 86 86 86 84 94 87 96 84 93 98 100 100 100 100 100 100
100 100 100 100 100 100 100 100 100 100 100 100 100 100 100 100 100 100 100 99 99 91 93 96 96 97 95 95 93 90 88 88 94 100 98 100 100 98 99 99 100 100 100

GFSMA_925_rhum_294.txt.gz
RH
65 75 67 76 66 71 70 73 60 61 58 56 55 52 51 54 55 63 64 73 89 92 92 90 86 95 97 98 96 95 93 90 88 87 84 88 84 84 88 85 81 78 78
67 62 64 61 66 60 62 64 63 59 55 54 52 53 56 57 64 76 62 89 90 88 87 86 87 96 98 95 95 95 92 90 88 86 85 86 85 88 82 84 80 81 82
65 60 63 68 70 61 57 57 57 56 55 54 54 58 60 72 83 82 69 94 92 87 81 88 89 93 99 86 93 93 92 91 90 88 85 87 84 82 84 80 82 80 82
63 66 64 77 81 68 61 54 55 56 55 54 56 57 60 72 82 85 88 93 93 88 84 87 90 97 98 95 91 91 92 91 90 89 87 85 83 84 84 84 82 85 84
63 66 65 85 80 74 65 59 57 58 56 56 55 59 59 70 78 97 100 93 92 87 89 82 90 91 95 93 89 91 92 92 90 91 89 89 86 86 85 86 87 86 86
64 67 70 87 81 76 67 62 59 61 60 59 60 63 65 68 82 83 94 92 82 85 84 84 81 92 92 89 91 93 93 92 92 92 91 90 89 88 87 88 88 87 87
65 70 78 81 76 77 68 65 63 63 60 63 69 80 84 79 78 82 86 92 83 82 83 77 82 86 88 86 83 94 95 92 92 93 92 92 90 90 89 89 88 88 86
68 68 84 83 87 82 74 72 64 66 72 70 77 76 93 88 83 83 91 92 90 82 79 81 83 84 88 90 88 84 83 91 92 93 92 93 92 91 90 88 88 88 85
72 69 71 83 85 82 79 76 73 67 76 82 68 65 89 90 87 88 92 91 90 90 80 76 82 86 83 82 92 91 83 84 94 92 91 92 91 90 91 90 89 89 84
77 73 70 69 78 79 79 75 72 76 77 85 73 64 65 63 83 98 91 95 97 93 90 82 80 88 85 87 86 81 86 79 87 92 92 91 91 91 89 88 89 89 86
88 85 76 71 75 78 77 75 70 77 77 86 78 77 67 60 60 74 91 100 99 92 97 90 85 86 86 87 94 93 87 83 74 92 91 93 92 91 91 92 88 89 86
94 91 91 80 76 79 78 78 68 75 79 82 79 72 66 62 64 63 77 84 96 96 87 93 88 91 86 81 83 88 92 91 81 88 90 95 95 94 94 91 93 87 88
100 100 96 86 78 78 77 77 71 72 80 79 80 74 66 59 56 56 58 66 78 75 93 82 91 92 88 86 85 91 93 91 89 82 91 92 94 98 97 92 91 92 92
97 94 89 84 81 80 79 79 77 74 78 76 76 76 70 63 59 58 57 61 75 70 84 91 88 88 92 92 92 88 89 96 98 93 84 91 82 88 94 91 92 94 95
92 97 95 88 84 82 84 81 83 76 75 75 74 74 74 69 65 62 59 57 62 84 84 72 79 77 75 81 86 87 90 92 99 97 98 89 82 84 95 93 90 88 90
99 99 99 99 92 87 89 88 86 83 77 76 77 78 76 74 69 63 62 59 61 64 82 59 63 65 67 74 78 82 83 91 95 99 98 98 94 90 91 92 90 91 92
92 97 98 100 99 100 97 95 94 91 85 82 79 78 79 75 71 66 66 64 64 67 73 63 59 63 64 67 81 84 90 92 83 78 89 87 84 98 92 96 96 93 98
94 97 96 100 100 100 100 100 100 97 92 92 88 84 85 82 78 75 69 70 68 71 71 75 68 60 63 67 62 62 64 67 72 80 78 84 91 100 100 100 95 99 93
76 92 98 100 100 100 100 100 99 99 96 94 90 86 88 89 84 84 80 80 75 74 75 77 74 69 65 64 68 66 65 68 67 63 80 87 85 84 94 100 95 99 100
77 89 100 100 99 99 100 100 100 100 99 96 94 91 90 92 88 88 88 86 83 80 80 81 85 83 73 69 66 65 67 69 68 65 64 66 66 66 68 85 94 96 100
84 78 91 100 97 98 99 99 98 99 99 99 96 94 93 92 88 86 89 90 92 91 95 93 89 87 83 78 72 70 70 69 69 66 65 61 60 59 58 68 92 100 100
99 84 77 96 92 93 92 92 95 98 98 98 98 96 94 89 89 88 89 89 86 94 98 96 94 91 88 84 75 75 73 86 83 71 68 66 66 64 62 68 77 87 95
99 100 89 95 92 96 95 94 95 97 95 95 94 91 92 91 92 92 95 95 96 95 92 89 96 94 91 88 83 82 84 84 76 71 75 75 71 70 74 74 83 85 89
99 100 100 99 92 93 94 97 97 97 97 94 92 92 92 88 86 91 95 97 98 98 97 97 97 96 95 92 89 85 86 86 81 77 78 81 77 82 84 87 98 99 99
100 100 100 100 100 100 99 99 99 100 98 94 94 94 93 93 91 92 96 99 100 99 98 99 100 100 99 96 96 94 89 87 90 87 85 83 80 84 84 84 96 99 99
100 100 100 100 100 100 100 100 100 100 100 100 100 99 99 99 97 99 100 100 100 98 99 100 100 100 100 99 98 90 83 86 87 94 87 87 88 89 91 90 91 99 100

GFSMA_925_rhum_300.txt.gz
RH
82 87 84 86 80 72 67 62 56 60 55 55 55 55 56 56 64 69 70 76 77 86 92 94 96 98 98 88 88 88 87 88 87 87 82 82 83 84 81 84 89 80 81
80 82 84 88 80 68 69 63 51 62 60 58 58 58 55 53 59 62 68 80 75 74 92 93 96 98 97 75 97 93 90 86 87 89 88 91 85 77 81 83 82 77 81
73 76 80 87 80 70 69 65 52 63 66 63 60 56 54 56 60 70 71 73 85 82 90 95 97 99 97 71 93 92 91 87 88 88 88 89 82 81 83 82 83 80 82
65 78 79 79 75 70 64 65 54 60 69 62 58 59 64 61 64 68 68 74 87 83 85 90 89 97 97 68 90 91 88 90 89 89 88 86 87 86 85 86 86 86 86
68 71 74 73 72 71 62 66 57 59 68 60 55 57 66 65 76 74 74 81 89 84 85 87 90 95 91 96 80 90 88 90 90 90 89 89 86 86 87 87 87 87 87
66 66 74 73 74 70 64 66 60 66 64 57 59 61 66 65 75 81 77 84 88 86 82 84 95 94 93 93 90 91 89 89 91 90 88 89 88 88 88 88 88 88 87
71 63 65 66 68 69 64 63 63 60 63 62 65 81 85 81 81 77 87 86 92 85 85 78 89 95 95 90 93 90 91 90 91 90 90 90 89 89 89 89 89 88 88
72 67 66 66 68 72 64 64 58 63 64 63 70 71 96 92 100 95 100 99 91 86 88 85 87 94 93 92 88 91 85 93 91 90 91 91 90 90 89 89 89 89 89
78 70 66 64 64 73 71 70 58 58 68 70 59 66 92 93 93 94 99 100 98 91 88 89 81 88 88 91 88 86 81 90 92 90 91 91 91 90 89 89 89 89 89
82 76 68 65 66 76 77 76 64 59 65 75 71 60 61 67 93 98 100 100 99 86 92 88 82 82 85 92 89 80 82 75 91 92 91 93 92 90 89 89 89 89 89
88 78 75 70 73 77 79 78 70 66 63 69 70 72 66 68 71 92 96 99 100 98 88 86 78 78 87 93 92 88 83 80 78 94 94 94 94 96 92 92 92 89 91
97 84 77 77 77 79 82 80 78 68 65 71 70 70 67 72 78 81 97 87 90 99 96 88 86 83 84 81 83 90 88 83 81 87 92 96 94 95 94 93 93 93 92
100 98 87 90 90 86 86 84 82 78 72 76 72 74 72 66 61 65 69 88 83 91 97 99 95 87 86 83 77 82 87 86 83 83 94 95 96 95 96 97 98 95 96
98 99 98 90 91 93 89 87 90 87 80 78 79 79 78 68 61 60 64 86 97 97 100 95 90 90 91 86 82 83 86 90 92 88 87 83 88 89 93 93 94 97 99
96 96 100 98 96 96 99 99 100 95 88 83 84 82 81 78 66 60 59 64 78 97 98 97 85 84 90 94 92 90 90 91 94 97 96 93 90 88 89 87 89 90 94
94 90 88 100 100 100 100 100 100 95 96 89 87 90 88 83 74 66 60 57 62 66 89 79 83 72 74 87 89 92 92 92 92 91 93 97 94 93 93 88 87 92 90
98 100 95 100 100 100 100 100 100 99 95 91 91 94 92 87 82 75 67 60 56 55 71 70 72 74 68 74 78 80 73 87 93 88 87 88 86 84 83 94 97 94 97
99 99 99 99 100 100 100 100 99 97 95 93 91 92 90 92 87 80 75 71 65 63 60 64 63 74 68 67 64 65 63 67 69 70 73 74 74 68 67 82 95 94 99
99 99 99 100 99 100 100 99 98 96 95 88 86 90 91 92 92 86 78 76 72 66 63 63 63 63 66 66 68 69 68 66 65 65 69 77 76 73 76 76 77 80 86
99 100 99 98 99 98 100 100 99 99 97 90 88 88 89 92 88 87 82 78 74 74 69 72 70 69 68 69 67 66 74 69 71 73 73 74 76 71 76 76 74 75 78
100 100 100 93 100 100 100 100 100 99 99 98 98 94 87 89 90 86 90 85 81 79 80 81 82 81 75 78 76 73 75 74 74 75 75 73 70 78 73 70 70 76 75
100 100 100 100 100 100 100 100 98 99 100 98 96 97 94 88 76 84 90 89 79 85 86 81 84 87 86 81 75 75 78 83 85 76 76 74 73 75 73 73 70 67 65
100 100 100 100 98 98 99 100 99 100 100 100 98 99 100 99 94 94 90 87 83 80 76 79 83 88 86 86 86 88 91 86 82 77 79 79 79 75 77 84 72 72 66
100 100 100 100 98 97 100 100 100 99 100 100 100 100 100 100 99 100 96 100 95 91 92 97 87 87 84 85 89 92 93 94 90 85 84 89 80 78 73 75 76 70 69
100 100 100 100 100 97 84 95 100 100 100 100 100 100 100 100 98 97 100 100 100 100 99 96 97 94 90 93 96 99 96 95 98 94 90 89 86 84 83 78 73 73 71
100 100 100 100 99 100 84 96 98 100 100 100 100 100 100 99 100 98 100 100 100 100 99 100 100 100 100 100 97 94 96 100 98 100 93 97 91 90 83 78 76 78 78